GW5617 Weather Reports


Display with metric or nautical units.
time (UTC)temp
F
wind
direction
speed
MPH
gust
MPH
rain 1hr
in
rain 24hr
in
rain mn
in
humidity
%
barometer
mb
20260507044529 35 282 0.0 0.0 0.00 0.00 0.00 80 1014.7
20260507043016 35 282 0.0 0.0 0.00 0.00 0.00 78 1014.8
20260507041518 35 282 0.0 0.0 0.00 0.00 0.00 76 1014.9
20260507040031 36 282 0.0 0.0 0.00 0.00 0.00 75 1015.1
20260507034525 37 282 0.0 0.0 0.00 0.00 0.00 74 1015.3
20260507033014 37 282 0.0 0.0 0.00 0.00 0.00 74 1015.3
20260507031517 38 282 0.0 0.0 0.00 0.00 0.00 70 1015.4
20260507030023 39 282 0.0 0.0 0.00 0.00 0.00 71 1015.4
20260507024524 39 282 0.0 0.0 0.00 0.00 0.00 67 1015.2
20260507023025 41 282 0.0 0.0 0.00 0.00 0.00 68 1015.1
20260507021519 42 282 0.0 0.0 0.00 0.00 0.00 63 1014.9
20260507020019 44 282 0.0 0.0 0.00 0.00 0.00 58 1014.8
20260507014521 46 282 0.0 0.0 0.00 0.00 0.00 54 1014.8
20260507013030 49 282 0.0 0.0 0.00 0.00 0.00 49 1015.0
20260507011526 52 282 0.0 0.0 0.00 0.00 0.00 42 1014.9
20260507010020 54 282 0.0 1.0 0.00 0.00 0.00 34 1014.9
20260507004524 55 297 0.0 1.0 0.00 0.00 0.00 30 1014.9
20260507003028 56 308 1.0 3.0 0.00 0.00 0.00 29 1015.0
20260507001534 57 295 1.0 4.0 0.00 0.00 0.00 30 1015.1
20260507000028 57 300 1.0 3.0 0.00 0.00 0.00 29 1015.2
20260506234514 57 302 0.0 5.0 0.00 0.00 0.00 30 1015.3
20260506233022 58 299 1.0 6.0 0.00 0.00 0.00 29 1015.4
20260506231527 58 268 3.0 8.0 0.00 0.00 0.00 28 1015.5
20260506230025 58 228 1.0 7.0 0.00 0.00 0.00 27 1015.6
20260506224512 58 229 1.0 4.0 0.00 0.00 0.00 31 1015.7
20260506223018 58 296 2.0 7.0 0.00 0.00 0.00 29 1015.7
20260506221519 58 241 3.0 9.0 0.00 0.00 0.00 28 1015.9
20260506220026 58 6 2.0 6.0 0.00 0.00 0.00 30 1016.0
20260506214525 57 295 0.0 9.0 0.00 0.00 0.00 29 1016.1
20260506213014 58 318 1.0 4.0 0.00 0.00 0.00 29 1016.3
20260506211519 59 51 1.0 8.0 0.00 0.00 0.00 26 1016.3
20260506210024 58 310 1.0 9.0 0.00 0.00 0.00 31 1016.6
20260506204524 58 336 3.0 6.0 0.00 0.00 0.00 27 1016.7
20260506203031 58 39 1.0 5.0 0.00 0.00 0.00 30 1016.8
20260506201515 58 82 2.0 6.0 0.00 0.00 0.00 30 1017.0
20260506200020 56 286 3.0 7.0 0.00 0.00 0.00 31 1017.1
20260506194522 55 321 3.0 9.0 0.00 0.00 0.00 30 1017.2
20260506193025 56 294 5.0 9.0 0.00 0.00 0.00 30 1017.4
20260506191528 58 298 2.0 9.0 0.00 0.00 0.00 31 1017.4
20260506190017 57 292 2.0 10.0 0.00 0.00 0.00 31 1017.5
20260506184526 57 315 2.0 11.0 0.00 0.00 0.00 34 1017.6
20260506183024 56 100 2.0 8.0 0.00 0.00 0.00 34 1017.8
20260506181530 56 25 3.0 9.0 0.00 0.00 0.00 33 1017.9
20260506180031 56 301 2.0 11.0 0.00 0.00 0.00 37 1018.2
20260506174518 56 312 4.0 8.0 0.00 0.00 0.00 35 1018.5
20260506173023 55 331 2.0 10.0 0.00 0.00 0.00 34 1018.5
20260506171525 55 324 4.0 11.0 0.00 0.00 0.00 35 1018.7
20260506170035 53 1 3.0 9.0 0.00 0.00 0.00 38 1018.8
20260506164532 53 214 1.0 8.0 0.00 0.00 0.00 41 1018.9
20260506163020 53 293 2.0 4.0 0.00 0.00 0.00 36 1018.7
20260506161524 52 299 3.0 9.0 0.00 0.00 0.00 39 1018.7
20260506160026 53 307 3.0 9.0 0.00 0.00 0.00 37 1018.7
20260506154529 52 343 4.0 8.0 0.00 0.00 0.00 37 1018.8
20260506153026 51 335 2.0 7.0 0.00 0.00 0.00 40 1018.7
20260506151534 51 53 3.0 5.0 0.00 0.00 0.00 39 1018.7
20260506150022 51 293 2.0 6.0 0.00 0.00 0.00 42 1018.8
20260506144525 50 319 5.0 8.0 0.00 0.00 0.00 40 1018.8
20260506143028 49 291 1.0 4.0 0.00 0.00 0.00 46 1018.7
20260506141528 48 295 3.0 7.0 0.00 0.00 0.00 43 1018.7
20260506140004 48 236 1.0 6.0 0.00 0.00 0.00 48 1018.6
20260506134504 46 304 2.0 5.0 0.00 0.00 0.00 47 1018.4
20260506133013 46 309 1.0 3.0 0.00 0.00 0.00 48 1018.4
20260506131517 45 289 1.0 4.0 0.00 0.00 0.00 53 1018.3
20260506130018 43 264 1.0 3.0 0.00 0.00 0.00 54 1018.4
20260506124503 43 274 0.0 1.0 0.00 0.00 0.00 58 1018.3
20260506123006 41 282 0.0 1.0 0.00 0.00 0.00 60 1018.0
20260506121508 38 279 0.0 0.0 0.00 0.00 0.00 68 1017.7
20260506120023 34 279 0.0 0.0 0.00 0.00 0.00 78 1017.5
20260506114518 30 279 0.0 0.0 0.00 0.00 0.00 80 1017.2
20260506113006 30 278 0.0 0.0 0.00 0.00 0.00 77 1017.1
20260506111506 32 279 0.0 0.0 0.00 0.00 0.00 76 1017.1
20260506110012 32 279 0.0 1.0 0.00 0.00 0.00 75 1017.0
20260506104515 32 279 0.0 0.0 0.00 0.00 0.00 74 1017.0
20260506103020 33 278 0.0 0.0 0.00 0.00 0.00 69 1016.8
20260506101536 35 278 0.0 0.0 0.00 0.00 0.00 67 1016.6
20260506100010 36 279 0.0 1.0 0.00 0.00 0.00 64 1016.5
20260506094513 36 279 0.0 0.0 0.00 0.00 0.00 64 1016.5
20260506093019 36 279 0.0 1.0 0.00 0.00 0.00 64 1016.5
20260506091521 38 278 0.0 0.0 0.00 0.00 0.00 59 1016.4
20260506090024 39 279 0.0 1.0 0.00 0.00 0.00 56 1016.2
20260506084509 40 279 0.0 1.0 0.00 0.00 0.00 56 1016.1
20260506083010 41 310 0.0 1.0 0.00 0.00 0.00 55 1015.9
20260506081521 41 310 0.0 1.0 0.00 0.00 0.00 54 1015.8
20260506073007 41 342 0.0 1.0 0.00 0.00 0.00 57 1015.7
20260506071514 41 32 0.0 0.0 0.00 0.00 0.00 55 1015.5
20260506061526 44 345 1.0 2.0 0.00 0.00 0.00 46 1015.6